Location: Unspecified
(0.0000°N, 0.0000°E)
Time: 10:40:08
(UTC+00:00)

Tiros 1 - All Passes

Search period start: 24 July 2014 00:00
Search period end: 03 August 2014 00:00
Orbit: 634 x 667 km, 48.4° (Epoch: 23 July)

Date Brightness Start Highest point End Pass type
(mag) Time Alt. Az. Time Alt. Az. Time Alt. Az.
24 Jul - 06:22:14 10° SW 06:26:49 64° NW 06:31:23 10° NNE daylight
24 Jul - 16:54:48 10° N 16:58:11 19° NE 17:01:34 10° E daylight
24 Jul - 18:35:56 10° WNW 18:40:18 35° SW 18:44:41 10° SSE visible
25 Jul - 05:07:42 10° SSW 05:11:52 33° SE 05:16:00 10° ENE visible
25 Jul - 06:50:45 10° W 06:53:57 18° NW 06:57:08 10° N daylight
25 Jul - 17:20:35 10° NNW 17:25:19 63° NE 17:30:05 10° SE daylight
25 Jul - 19:06:24 10° WSW 19:07:31 11° SW 19:08:38 10° SW visible
26 Jul - 05:34:21 10° SW 05:38:58 69° NW 05:43:33 10° NNE visible
26 Jul - 16:07:06 10° N 16:10:18 18° NE 16:13:30 10° E daylight
26 Jul - 17:48:00 10° WNW 17:52:25 37° SW 17:56:52 10° SSE daylight
27 Jul - 04:19:54 10° S 04:24:00 30° SE 04:28:04 10° ENE visible
27 Jul - 06:02:43 10° W 06:06:05 20° NW 06:09:26 10° N daylight
27 Jul - 16:32:44 10° NNW 16:37:26 58° NE 16:42:10 10° SE daylight
27 Jul - 18:17:59 10° WSW 18:19:38 12° SW 18:21:17 10° SSW daylight
28 Jul - 04:46:28 10° SW 04:51:07 75° NW 04:55:43 10° NE visible
28 Jul - 15:19:26 10° N 15:22:25 16° NE 15:25:25 10° E daylight
28 Jul - 17:00:04 10° WNW 17:04:32 40° SW 17:09:03 10° SSE daylight
29 Jul - 03:32:07 10° S 03:36:09 28° SE 03:40:07 10° ENE visible
29 Jul - 05:14:43 10° W 05:18:14 21° NW 05:21:44 10° N visible
29 Jul - 15:44:55 10° NNW 15:49:33 54° NE 15:54:15 10° SE daylight
29 Jul - 17:29:43 10° WSW 17:31:45 13° SW 17:33:46 10° SSW daylight
30 Jul - 03:58:35 10° SW 04:03:15 81° NW 04:07:52 10° NE visible
30 Jul - 14:31:47 10° NNE 14:34:32 15° NE 14:37:18 10° E daylight
30 Jul - 16:12:08 10° WNW 16:16:40 43° SW 16:21:14 10° SSE daylight
31 Jul - 02:44:21 10° S 02:48:17 26° SE 02:52:10 10° ENE visible
31 Jul - 04:26:42 10° WSW 04:30:22 23° NW 04:34:00 10° N visible
31 Jul - 14:57:05 10° NNW 15:01:41 50° NE 15:06:20 10° SE daylight
31 Jul - 16:41:32 10° W 16:43:51 13° SW 16:46:12 10° SSW daylight
01 Aug - 03:10:43 10° SW 03:15:24 87° NW 03:20:02 10° NE visible
01 Aug - 13:44:10 10° NNE 13:46:39 14° NE 13:49:10 10° E daylight
01 Aug - 15:24:13 10° NW 15:28:47 46° SW 15:33:24 10° SSE daylight
02 Aug - 01:56:34 10° S 02:00:25 25° SE 02:04:13 10° ENE night (unlit)
02 Aug - 03:38:42 10° WSW 03:42:30 25° NW 03:46:16 10° N visible
02 Aug - 14:09:16 10° NNW 14:13:48 46° NE 14:18:24 10° SE daylight
02 Aug - 15:53:23 10° W 15:55:58 14° SW 15:58:34 10° SSW daylight
